This demonstration page uses our WeatherBlox Daily Observations layout. Learn more.

Left ArrowRight Arrow

38.88101, -77.10428

Hourly Observations for October 13, 2022

Temp ( °F °C ) Dew Point ( °F °C ) Humidity (%) Winds ( mph kmh ) Pressure ( in mb ) Visibility ( mi km ) Precip ( " mm )
12:52 am 00:52 Cloudy 65 18.3 58 14.4 78 78 S 8 13 29.99 1016 10 16 0.01 0.13
1:52 am 01:52 Cloudy 64 17.8 58 14.4 80 80 S 8 13 29.96 1015 10 16 0.00 0.00
2:52 am 02:52 Cloudy 64 17.8 59 15 84 84 S 7 11 29.93 1014 10 16 0.00 0.00
3:52 am 03:52 Cloudy 65 18.3 59 15 81 81 S 8 13 29.91 1013 10 16 0.00 0.00
4:52 am 04:52 Cloudy with Light Rain 65 18.3 58 14.4 78 78 SSW 10 17 29.89 1012 10 16 0.01 0.13
5:52 am 05:52 Cloudy with Light Rain 64 17.8 60 15.6 87 87 S 10 17 29.86 1011 8 13 0.04 1.02
6:52 am 06:52 Cloudy with Light Rain 64 17.8 60 15.6 87 87 S 9 15 29.85 1011 10 16 0.02 0.51
7:25 am 07:25 Cloudy with Rain 63 17.2 61 16.1 93 93 S 12 19 29.85 1011 3 4 0.02 0.51
7:34 am 07:34 Cloudy with Light Rain 63 17.2 61 16.1 93 93 S 12 19 29.84 1010 4 6 0.03 0.76
7:52 am 07:52 Cloudy with Light Rain 63 17.2 61 16.1 93 93 S 12 19 29.84 1011 7 11 0.05 1.27
8:07 am 08:07 Cloudy with Rain 63 17.2 61 16.1 93 93 S 14 22 29.84 1010 3 5 0.01 0.25
8:14 am 08:14 Cloudy with Heavy Rain 63 17.2 61 16.1 93 93 S 12 19 29.84 1010 3 4 0.04 1.02
8:23 am 08:23 Cloudy with Rain 63 17.2 61 16.1 93 93 S 14 22 29.84 1010 4 6 0.07 1.78
8:29 am 08:29 Cloudy with Light Rain 63 17.2 61 16.1 93 93 S 13 20 29.84 1010 4 6 0.07 1.78
8:34 am 08:34 Cloudy with Rain 63 17.2 61 16.1 93 93 S 13 20 29.84 1010 2 3 0.08 2.03
8:44 am 08:44 Cloudy with Rain 63 17.2 61 16.1 93 93 SSE 15 24 29.84 1010 3 4 0.12 3.05
8:52 am 08:52 Cloudy with Light Rain 63 17.2 61 16.1 93 93 S 13 20 29.83 1010 7 11 0.12 3.05
9:00 am 09:00 Cloudy with Rain 64 17.8 61 16.1 90 90 S 12 19 29.84 1010 2 3 0.01 0.13
9:06 am 09:06 Cloudy with Rain 64 17.8 62 16.7 93 93 S 13 20 29.84 1010 2 3 0.01 0.25
9:12 am 09:12 Cloudy with Rain 64 17.8 62 16.7 93 93 S 13 20 29.84 1010 2 2 0.02 0.51
9:24 am 09:24 Cloudy with Light Rain 63 17.2 62 16.7 97 97 S 14 22 29.84 1010 3 4 0.06 1.52
9:30 am 09:30 Cloudy with Light Rain 64 17.8 62 16.7 93 93 S 16 26 29.84 1010 6 10 0.06 1.52
9:52 am 09:52 Cloudy 64 17.8 62 16.7 93 93 S 10 17 29.83 1010 9 14 0.06 1.52
10:00 am 10:00 Cloudy 64 17.8 62 16.7 93 93 S 12 19 29.83 1010 10 16 0.00 0.00
10:16 am 10:16 Cloudy with Light Rain 64 17.8 62 16.7 93 93 S 14 22 29.83 1010 4 6 0.01 0.13
10:48 am 10:48 Cloudy with Light Rain 64 18 63 17 94 94 S 10 17 29.82 1010 3 4 0.01 0.25
10:52 am 10:52 Cloudy with Light Rain 65 18.3 63 17.2 93 93 S 13 20 29.81 1010 2 2 0.01 0.25
10:56 am 10:56 Cloudy with Light Rain 65 18.3 63 17.2 93 93 S 13 20 29.81 1009 4 6 0.01 0.13
11:12 am 11:12 Cloudy with Drizzle 65 18.3 63 17.2 93 93 S 10 17 29.81 1009 6 10 0.01 0.13
11:20 am 11:20 Cloudy with Drizzle 65 18.3 63 17.2 93 93 S 13 20 29.81 1009 5 8 0.01 0.13
11:28 am 11:28 Cloudy with Rain 65 18.3 63 17.2 93 93 S 10 17 29.81 1009 2 2 0.01 0.13
11:41 am 11:41 Cloudy with Heavy Rain 65 18.3 63 17.2 93 93 S 12 19 29.80 1009 1 1 0.08 2.03
11:48 am 11:48 Cloudy with Rain 64 18 63 17 94 94 S 10 17 29.80 1009 2 3 0.13 3.30
11:52 am 11:52 Cloudy with Drizzle 64 17.8 63 17.2 96 96 S 12 19 29.80 1009 4 6 0.15 3.81
12:52 pm 12:52 Cloudy with Light Rain 66 18.9 64 17.8 93 93 S 8 13 29.77 1008 6 10 0.01 0.25
1:52 pm 13:52 Cloudy 68 20 65 18.3 90 90 S 8 13 29.75 1007 8 13 0.01 0.13
2:34 pm 14:34 Cloudy 68 20 65 18.3 90 90 S 7 11 29.74 1007 9 14 0.01 0.13
2:52 pm 14:52 Mostly Cloudy 70 21.1 66 18.9 87 87 S 9 15 29.72 1007 10 16 0.01 0.13
3:52 pm 15:52 Mostly Cloudy 70 21.1 65 18.3 84 84 S 10 17 29.71 1006 10 16 0.00 0.00
4:04 pm 16:04 Mostly Cloudy 70 21.1 64 17.8 81 81 S 9 15 29.71 1006 10 16 0.00 0.00
4:48 pm 16:48 Cloudy 70 21 64 18 83 83 S 7 11 29.70 1006 10 16 0.00 0.00
4:52 pm 16:52 Cloudy 70 21.1 65 18.3 84 84 S 6 9 29.70 1006 10 16 0.00 0.00
5:52 pm 17:52 Mostly Cloudy 69 20.6 64 17.8 84 84 SSE 5 7 29.70 1006 10 16 0.00 0.00
6:52 pm 18:52 Cloudy 70 21.1 64 17.8 81 81 S 3 6 29.71 1006 10 16 0.00 0.00
7:13 pm 19:13 Cloudy 68 20 64 17.8 87 87 ENE 3 6 29.72 1006 10 16 0.00 0.00
7:52 pm 19:52 Cloudy 66 18.9 55 12.8 68 68 N 13 20 29.75 1008 10 16 0.00 0.00
8:06 pm 20:06 Cloudy 64 17.8 55 12.8 73 73 N 14 22 29.77 1008 10 16 0.00 0.00
8:52 pm 20:52 Cloudy with Light Rain 62 16.7 58 14.4 86 86 N 12 19 29.78 1009 10 16 0.02 0.51
9:52 pm 21:52 Cloudy with Light Rain 61 16.1 57 13.9 87 87 N 13 20 29.81 1009 10 16 0.01 0.25
10:52 pm 22:52 Cloudy 60 15.6 52 11.1 75 75 NNW 16 26 29.83 1010 10 16 0.01 0.13
11:52 pm 23:52 Cloudy with Heavy Rain 56 13.3 52 11.1 87 87 N 10 17 29.86 1011 4 6 0.04 1.02

Powered by AerisWeather